Location: ?????
(33.3167°N, 44.3667°E)
Time: 22:54:45
(UTC+00:00)

Daily predictions for brighter satellites

Satellite Brightness Start Highest point End
(mag) Time Altitude Azimuth Time Altitude Azimuth Time Altitude Azimuth
Cosmos 405 4.0 16:01:05 10° SSE 16:03:54 24° E 16:06:45 10° NE
USA 32 4.4 15:59:59 10° S 16:05:11 72° W 16:10:24 10° N
Hubble Space Telescope 2.8 16:03:58 10° S 16:05:53 13° SSE 16:07:48 10° SE
SEDSat Delta rocket 4.5 15:59:29 10° W 16:06:06 56° SSW 16:12:32 10° ESE
Abrixas rocket 2.5 16:05:16 10° WSW 16:06:58 32° NW 16:08:40 10° NNE
Atlas Centaur 2 3.7 16:00:34 10° W 16:07:59 47° SSW 16:16:02 10° SE
Delta 142 4.2 16:04:08 10° WSW 16:08:04 42° S 16:12:35 10° ESE
CSL-04 Debris 4.3 16:03:40 10° SSE 16:09:04 61° ENE 16:14:27 10° N
Cosmos 2344 3.6 16:02:04 10° SSW 16:09:48 57° ESE 16:17:03 10° NE
SAR-Lupe-1 4.0 16:06:37 10° NNE 16:10:12 81° ESE 16:13:46 10° S
USA 238 DEB 4.3 16:12:49 10° NW 16:20:09 69° WSW 16:27:43 10° SSE
USA 238 4.3 16:12:55 10° NW 16:20:16 69° WSW 16:27:50 10° SSE
Cosmos 1302 Rocket 4.1 16:15:13 10° N 16:20:26 57° ENE 16:25:36 10° SSE
USA 186 2.7 16:17:59 10° SE 16:20:52 30° ENE 16:23:42 10° NNE
CENTAUR R/B 3.5 16:12:52 10° NNW 16:21:24 79° WSW 16:30:19 10° SSE
SJ-6B 3.9 16:19:13 12° ESE 16:21:44 23° ENE 16:24:44 10° NNE
Cosmos 2297 Rocket 3.8 16:20:27 12° ESE 16:22:14 13° E 16:24:53 10° ENE
Cosmos 2034 Rocket 4.0 16:17:36 10° S 16:23:47 90° E 16:30:04 10° N
Cosmos 2322 Rocket 2.8 16:19:28 10° NNW 16:25:05 59° WSW 16:30:38 10° S
Cosmos 1825 Rocket 3.5 16:21:07 10° N 16:25:31 67° E 16:29:54 10° SSE
ATLAS 3B R/B 4.1 16:22:56 10° N 16:28:31 24° NE 16:33:14 13° E
Cosmos 1689 Rocket 4.2 16:26:25 10° NNW 16:28:56 29° WNW 16:31:24 10° SW
Cosmos 44 3.3 16:26:30 10° SSW 16:31:25 81° ESE 16:36:42 10° NNE
Nadezhda 4 Rocket 4.0 16:25:08 10° N 16:31:26 75° E 16:37:37 10° S
Cosmos 2333 Rocket 2.9 16:26:23 10° N 16:31:39 36° ENE 16:35:29 17° ESE
H-2A R/B 1.3 16:30:50 10° WSW 16:33:05 26° S 16:33:42 22° SSE
Cosmos 1892 2.9 16:29:52 10° N 16:33:31 47° E 16:36:44 13° SSE
MetOp-A 4.2 16:29:25 10° SSE 16:34:40 59° ENE 16:39:56 10° N
Cosmos 1758 Rocket 4.2 16:30:16 10° NNW 16:34:40 61° W 16:39:05 10° S
Cosmos 909 Rocket 4.0 16:28:48 10° SSW 16:35:22 64° ESE 16:41:33 10° NE
YAOGAN 1 4.4 16:32:16 10° SSW 16:36:08 32° W 16:40:01 10° NW
ARGOS 4.2 16:32:30 10° S 16:37:40 47° W 16:42:50 10° NNW
CZ-4 R/B 3.8 16:34:14 10° SSW 16:37:42 25° W 16:41:11 10° NW
Cosmos 2322 4.1 16:36:21 10° N 16:41:47 46° ENE 16:45:25 20° SE
Cosmos 1825 3.2 16:40:37 10° NNE 16:43:49 26° ENE 16:44:28 24° E
COSMOS 2487 4.1 16:41:52 10° SW 16:45:01 35° WNW 16:48:10 10° N
Cosmos 1408 2.7 16:41:54 10° N 16:45:21 48° E 16:47:06 25° SE
Cosmos 2026 Rocket 4.3 16:41:48 10° N 16:47:34 43° E 16:51:42 19° SE
CSL-04 Rocket 4.2 16:44:10 10° S 16:49:22 59° WSW 16:54:35 10° NNW
Meteor 2-1 Rocket 4.3 16:46:35 10° S 16:52:14 58° E 16:58:00 10° NNE
Cosmos 407 Rocket 4.4 16:54:01 26° ESE 16:54:12 26° E 16:58:23 10° NE
SWIFT 4.5 16:53:52 10° SW 16:55:53 13° S 16:56:32 13° S
Helios 1A Rocket 3.9 16:52:21 10° S 16:56:15 46° W 17:00:11 10° NNW
Cosmos 1818 3.8 16:51:13 10° SW 16:56:36 72° WNW 17:02:04 10° NNE
SL-4 R/B 2.6 16:52:46 10° SSW 16:56:38 36° SE 16:57:43 31° E
Cosmos 1634 Rocket 3.9 16:52:00 10° S 16:58:16 76° E 17:04:31 10° N
RESURS DK-1 3.6 17:00:01 10° SW 17:03:55 43° WNW 17:07:54 10° N
Cosmos 2360 Rocket 3.1 16:59:58 10° NNW 17:05:20 46° WSW 17:10:41 10° S
COSMOS 2428 2.8 17:06:48 10° NNW 17:12:27 56° ENE 17:14:28 37° SE
BREEZE M DEB (TANK) 3.7 16:56:40 10° NW 17:15:02 81° NE 17:17:14 38° ESE
Cosmos 1140 Rocket 4.1 17:16:59 35° E 17:16:59 35° E 17:20:52 10° NE
Cosmos 2333 4.4 17:10:41 10° NNW 17:16:25 73° WSW 17:19:51 25° S
FALCON 9 R/B 4.4 17:09:20 10° W 17:17:29 87° SSW 17:37:51 25° ESE
Cosmos 2219 Rocket 2.1 17:16:08 10° NNW 17:21:50 84° ENE 17:24:02 39° SSE
IRIDIUM 106 4.4 17:21:35 46° SE 17:22:34 54° E 17:27:38 10° NNE
Cosmos 2058 2.8 17:19:20 10° N 17:23:31 86° ENE 17:24:11 63° SSE
Cosmos 1455 4.0 17:20:54 10° SW 17:24:14 30° W 17:27:35 10° NNW
Meteor 2-19 Rocket 4.5 17:18:14 10° N 17:24:24 83° W 17:28:37 22° S
OBJECT-B 2.4 17:28:15 27° SW 17:29:04 32° W 17:32:00 10° NNW
ATLAS 5 CENTAUR R/B 3.1 17:27:52 10° NNW 17:28:41 23° NNW 17:28:41 23° NNW
Exosat Rocket 3.4 17:30:46 10° NNW 17:36:34 76° ENE 17:37:20 63° SE
BREEZE-M DEB (TANK) 2.9 17:41:31 10° WNW 17:43:52 54° WSW 17:43:52 54° WSW
Landsat 7 4.2 17:45:58 49° NE 17:45:58 49° NE 17:49:51 10° N
SPOT 1/Viking Rocket 4.4 17:46:18 36° NE 17:46:18 36° NE 17:50:15 10° N
Hubble Space Telescope 3.1 17:42:52 10° SW 17:43:43 15° SW 17:43:43 15° SW
Cosmos 1190 Rocket 4.3 17:49:39 52° NE 17:49:39 52° NE 17:53:41 10° NNE
MetOp-B 4.3 17:49:44 56° NE 17:49:44 56° NE 17:54:37 10° N
Cosmos 1076 Rocket 4.0 17:45:09 10° N 17:48:34 55° N 17:48:34 55° N
Cosmos 1812 Rocket 3.7 17:49:59 70° NW 17:49:59 70° NW 17:54:08 10° N
Cosmos 2237 Rocket 2.9 17:44:47 10° N 17:49:31 39° NE 17:49:31 39° NE
Cosmos 405 Rocket 3.6 17:46:30 10° NNW 17:49:25 47° NNW 17:49:25 47° NNW
NOSS 0 Rocket 3.8 17:44:41 10° NNW 17:50:53 67° ENE 17:51:23 64° E
Cosmos 389 Rocket 4.1 17:52:18 33° NW 17:52:18 33° NW 17:54:52 10° N
Ariane Rocket 3.9 17:49:59 31° SSW 17:51:52 45° W 17:56:42 10° NNW
SPOT 3 Rocket 3.4 17:52:10 84° E 17:52:12 84° ENE 17:57:24 10° NNW
Meteor 2-21 4.4 17:49:24 10° N 17:55:18 64° ENE 17:55:18 64° ENE
IGS 5A 4.5 17:57:55 41° N 17:57:55 41° N 18:00:42 10° N
Resurs 01 Rocket 2.1 17:58:33 60° NW 17:58:33 60° NW 18:02:19 10° NNW
Cosmos 2227 Rocket 2.1 17:58:41 78° NE 17:58:41 78° NE 18:04:00 10° NNE
Cosmos 2292 Rocket 4.1 17:57:17 10° N 18:03:28 76° W 18:03:28 76° W
Cosmos 2297 Rocket 2.5 18:01:48 21° SW 18:05:36 63° WNW 18:11:13 10° NNE
Cosmos 2219 3.4 18:08:07 44° SW 18:09:45 65° WNW 18:15:21 10° NNE
Cosmos 1809 Rocket 4.4 18:05:06 10° N 18:11:11 78° W 18:11:32 75° SW
USA 215 4.0 18:13:39 37° NE 18:14:22 38° NE 18:20:17 10° NNW
Cosmos 2333 Rocket 3.9 18:11:02 10° NW 18:15:40 26° WSW 18:17:32 22° SW
ATLAS 3B R/B 2.9 18:12:37 10° NW 18:19:43 68° WSW 18:20:30 64° SSW
SL-16 R/B 3.8 18:39:29 10° N 18:42:20 26° NNE 18:42:20 26° NNE
Terra 4.2 18:54:24 18° N 18:54:24 18° N 18:55:36 10° N
Cosmos 2278 Rocket 4.4 22:20:37 21° NNE 22:20:37 21° NNE 22:22:23 10° NNE
CZ-2D R/B 4.5 22:13:25 10° NNE 22:15:02 20° NNE 22:15:02 20° NNE
ADEOS II 4.2 22:37:54 10° NNE 22:40:00 22° NE 22:40:00 22° NE
ATLAS 5 CENTAUR R/B 3.9 22:40:50 10° N 22:46:07 32° NE 22:47:28 30° ENE
SL-16 R/B 3.8 23:03:04 34° NNW 23:03:04 34° NNW 23:06:21 10° NNW
IDEFIX/ARIANE 42P 4.3 23:03:20 10° NE 23:06:37 28° ENE 23:06:37 28° ENE
Milstar 3 3.7 23:11:19 43° ESE 23:11:19 43° ESE 23:17:53 10° E
Nadezhda 3 Rocket 4.4 23:31:05 59° N 23:31:05 59° N 23:36:10 10° N
ADEOS Rocket 3.5 23:37:32 47° SE 23:39:14 63° ENE 23:46:00 10° N
CZ-4B R/B 4.3 23:37:37 10° NNE 23:41:24 44° ENE 23:41:24 44° ENE
Cosmos 2082 Rocket 2.5 23:37:17 10° NNW 23:42:06 60° NNE 23:42:06 60° NNE
Cosmos 1680 Rocket 4.3 23:39:25 10° NNW 23:43:12 46° N 23:43:12 46° N
Resurs 1-4 Rocket 4.3 23:43:37 10° NNW 23:44:51 14° NW 23:44:51 14° NW
X-37B 4.0 23:52:19 12° NNE 23:52:19 12° NNE 23:52:37 10° NNE
